Weather in Lyamino

Russia / Perm Krai     58°17′09″N   57°43′12″E
temp.,
°C
wind,
m/s
gust,
m/s
humid.,
%
clouds,
%
prec.,
mm/h
press.,
hPa
HPBL,
m
3 march, wed
wed323:00−10ssw41193100 0.7 996480
02:00−8ssw31095100 0.8 995478
05:00−8ssw2796100 1.6 994257
08:00−8ssw2697100 0.4 994170
11:00−4wsw3694100 0.6 995436
14:00−3wsw3593100 0.2 995478
17:00−2wsw3693100 0.4 996531
20:00−5sw2797100 0.3 996197
4 march, thu
thu423:00−8wsw119896 0.6 99621
02:00−7w0197100 0.4 99521
05:00−8wnw2497100 1.0 995127
08:00−10w2696100 0.5 995247
11:00−9wsw3694100 0.7 995359
14:00−6sw4692100 0.3 995633
17:00−6sw3792100 0.6 995634
20:00−8ssw41093100 0.3 994446
5 march, fri
fri523:00−8s2896100 0.6 993362
02:00−8sse2396100 0.6 992113
05:00−11se129797 0.6 99421
08:00−11sse119794 0.1 99621
11:00−7w239395 0.3 997322
14:00−5w3487100 0.1 998712
17:00−5wnw2388100 0.3 1000511
20:00−10nw119592 0.1 100121
6 march, sat
sat623:00−12nnw129796 0.1 100220
02:00−17wnw129961 0.0 100421
05:00−19w2210071 0.0 100625
08:00−19w2499100 0.1 1007137
11:00−15w3594100 0.2 1008372
14:00−12w3588100 0.1 1008720
17:00−11wsw2586100 0.1 1008687
20:00−16ssw229581 0.0 100820
7 march, sun
sun723:00−16s239773 0.1 100893
02:00−15s2697100 0.3 1007190
05:00−16ssw2497100 0.6 1007114
08:00−18w1298100 0.3 100730
11:00−16w2494100 0.3 1008360
14:00−13wsw3484100 0.0 1009745
17:00−13sw3585100 0.1 1009874
20:00−15ssw2696100 0.2 1009142